Погода Удское

Погода Удское : погода сейчас, прогноз погоды и архив. Всё, что Вы хотите узнать о погоде Удское!

Поиск расширенной информации на нашем сайте:

Другие новости

Новости СМИ2

Главная страница сайта

Новости сайта

02.10.2013

Напоминаем, что на нашем новом сайте вы можете получить высокодетализированные прогнозы погоды по пунктам России, СНГ и мира (включающие важные для авиации метеовеличины, такие как направление и скорость ветра, видимость, явления погоды, количество и форма облачности, нижняя и верхняя граница облачности), а также ознакомиться с разнообразными материалами по авиационной метеорологии и подборкой полезных ссылок на эту тему.

Сайт Метеоцентр.Азия посвящён разработке технологий оптимизации авиаметеорологического обслуживания, включая проектирование и перспективное создание нескольких автоматизированных авиаметеорологических систем:
- система выпуска высокодетальных прогностических карт явлений погоды для нижнего воздушного пространства по России и ближнему зарубежью;
- система верификации прогнозов TAF (выпускаемых синоптиками официальных АМСГ РФ и ближнего зарубежья) и AUTOTAF (выпускаемых сайтом Метеоцентр.Азия) - выявление ошибок, онлайн-сопоставление с фактической погодой METAR, автоматическое внесение коррективов в прогнозы при резком отклонении фактической погоды от прогноза, подсчёт оправдываемости прогнозов по элементам и в целом;
- система обработки, анализа и отображения авиаметеорологической информации для применения провайдерами метеорологической информации.

Рекомендуем: Стоимость источника бесперебойного питания цена на ups источники бесперебойного питания.

Погода Удское - сегодня

Время (UTC), дата Ветер
(°,м/с) 
Видим.   Явления Облачность Т
(°С)
Тd
(°С)
f(%) Тe
(°С)
Pmin
(гПа)
dP
(гПа)
Po
(мм)
O2
(г/м3)
Тmin Tmax R s Состояние
почвы
03 20.03.17 180 (Ю) 20000 м    3/0 верхняя 
[Ci fib]
-1.9 -7.9 63 -1  1020.5  -2.1  760  309           
06 20.03.17 320 (СЗ) 20000 м    4/4 1000 м 
[Sc]
+3.3 -7.9 44 +4  1018.3  -2.1  758  303           
09 20.03.17 230 (ЮЗ) 20000 м    6/6 1000 м 
[Sc]
+0.4 -9.3 48 +1  1018.3  -0.1  758  306    +4.6       
12 20.03.17 340 (С) 20000 м    6/6 1000 м 
[Sc]
-4.2 -11.1 59 -4  1018.3  -0.2  758  311           
15 20.03.17 340 (С) 20000 м    6/6 1000 м 
[Sc]
-10.3 -13.1 80 -10  1018.4  758  318           
18 20.03.17 тихо ()   20000 м    3/0 верхняя 
[Ci fib]
-14.7 -16.7 85 -15  1017.9  -0.7  757  324           
21 20.03.17 тихо ()   20000 м    4/0 средняя, верхняя 
[Ac lent|Cc]
-17.8 -18.4 95 -18  1018.3  0.2  757  328  -18.3      60  равномерный
сухой снег
100% 
00 21.03.17 320 (СЗ) 20000 м    5/3 600 м средняя, верхняя 
[Sc|Ac lent|Cc]
-4.2 -9.7 65 -4  1017.5  -0.3  757  311           
03 21.03.17 360 (С) 20000 м    3/3 600 м верхняя 
[Sc|Cc]
+0.2 -9.1 50 +1  1016  -1.3  756  305           
06 21.03.17 320 (СЗ) 20000 м    8/4 600 м кучево-дожд., средняя, верхняя 
[Cb cap|Ac As|Cc]
+1 -9.8 44 +2  1014.2  -1.8  755  304           
09 21.03.17 050 (СВ) 20000 м    8/4 600 м кучево-дожд., средняя, верхняя 
[Cb cap|Ac lent|Cc]
-0.7 -9.7 51 1014.6  0.4  755  306    +2.1       
12 21.03.17 050 (СВ) 20000 м    3/3 600 м кучево-дожд. 
[Cb cap]
-8.7 -13.6 68 -8  1015.8  0.9  756  316           
15 21.03.17 050 (СВ) 20000 м    3/3 600 м кучево-дожд. 
[Cb cap]
-11.6 -14.4 80 -11  1016.3  0.5  756  319           
18 21.03.17 050 (СВ) 20000 м    3/3 600 м кучево-дожд. 
[Cb cap]
-15.9 -19.3 75 -16  1016.8  0.3  756  325           
21 21.03.17 тихо ()   20000 м    1/1 1000 м 
[Sc]
-20.5 -21.1 95 -21  1017.7  0.7  757  331  -20.7      60  равномерный
сухой снег
100% 
00 22.03.17 020 (С) 20000 м    1/1 1000 м 
[Cu hum]
-6.9 -11.6 69 -7  1017.5  0.3  757  314           
03 22.03.17 020 (С) 20000 м    3/1 1000 м средняя 
[Cu hum|Ac trans]
-0.3 -8.6 53 1017.6  0.3  757  306           
06 22.03.17 070 (В) 20000 м    4/4 1000 м 
[Sc]
+1.1 -7.7 52 +2  1017.4  -0.2  757  305           
09 22.03.17 тихо ()   20000 м    10/10 1000 м 
[Sc]
-0.4 -7.9 57 -0  1018.7  1.3  758  307    +2       
12 22.03.17 тихо ()   20000 м    6/6 1000 м 
[Sc]
-4.4 -9.1 70 -4  1019.9  759  312           
15 22.03.17 тихо ()   20000 м    6/6 1000 м 
[Sc]
-11.1 -13.1 85 -11  1020.8  0.8  760  320           
18 22.03.17 тихо ()   20000 м    10/10 1000 м 
[Sc]
-10.6 -11.9 90 -11  1021.7  0.9  760  320           
21 22.03.17 250 (З) 20000 м    9/0 средняя 
[Ac As]
-6 -9.1 79 -7  1021.9  0.3  760  314  -11.5      59  равномерный
сухой снег
100% 
00 23.03.17 200 (Ю) 20000 м    8/0 средняя, верхняя 
[Ac cast|Cc]
-4 -8.5 71 -5  1022.4  0.5  761  312           
03 23.03.17 250 (З) 20000 м    8/1 1000 м средняя, верхняя 
[Cu hum|As trans|Cc]
+1.4 -5.9 58 +1  1021.1  -1.1  760  305           
Время (UTC), дата Ветер
(°,м/с) 
Видим.   Явления Облачность Т
(°С)
Тd
(°С)
f(%) Тe
(°С)
Pmin
(гПа)
dP
(гПа)
Po
(мм)
O2
(г/м3)
Тmin Tmax R s Состояние
почвы

Для получения пояснительной информации подведите курсор к названию столбца.

ПОГОДА Удское - архив

Всё, что Вы хотите узнать о погоде Удское - удобно и подробно!

Выберите нужную дату (начиная с 1 января 2015* года) и нажмите кнопку "Найти".
Будут отображены архивные сводки погоды по пункту Удское, начиная с указанной даты.


Отображать данные в формате CSV (для использования в таблицах Excel)


Внимание! Наш архив погоды предназначен исключительно для личного некоммерческого использования в познавательных целях. Если Вам необходимы официальные справки о состоянии погоды (для производственных, юридических, коммерческих и т.п. целей), обращайтесь в органы Росгидромета.

*Примечание: данная дата относится к архиву по метеостанциям СССР (Россия, СНГ, Балтия).
Архив по метеостанциям Зарубежной Европы и Азии (кроме Китая) хранится 10 дней, по другим регионам земного шара (Китай, Африка, Америка, Австралия, Океания) - 1 день.

Удское - район местоположения метеостанции


Название, широта, долгота, высота метеостанции:
Удское 54.53°ш. 134.42°д. 57 м над ур. моря [Российская Федерация]

Дополнительная информация

В oтличие oт бoльшинства пoгoдных сайтoв мы публикуем пoдрoбную метеoинфoрмацию в детальнoм прoфессиoнальнoм фoрмате.

Характеристики температуры и влажнoсти вoздуха измеряются на высoте 2 м в тени вдали oт зданий и деревьев.
Скoрoсть ветра измеряется на высoте 10 м (на урoвне рoста челoвека скoрoсть ветра ниже в 1.5-2 раза). Если метеoстанция нахoдится в гoрoде или в лесу, тo скoрoсть ветра занижена на 2-4 м/с пo сравнению с oткрытым местoм. Скoрoсть ветра над акватoриями крупных рек и oзёр, а также на вершинах хoлмoв на 2-5 м/с выше, чем в oбычных услoвиях.
Атмoсфернoе давление в разных тoчках местнoсти мoжет значительнo oтличаться oт давления на метеoстанции, в зависимoсти oт услoвий рельефа (при пoдъёме на 10 м давление пoнижается примернo на 1 мм рт.ст.).